Simultaneous Nadir Overpasses (SNOs) Predictions

Prediction of SNOs between GOES-17 and AQUA Satellite Orbit:

Table of predicted SNOs for the next 14.0 days since TLE Epoch: 12/20/2019
Index Date Time (GOES-17) GOES-17 Lat,Lon AQUA Lat,Lon Distance(km) Time Diff (sec)
1 12/22/2019 10:30:31 0.02,-137.21 -0.62,-134.20 342.56 80
2 12/22/2019 22:54:35 -0.02,-137.21 -0.50,-139.38 247.76 80
3 12/24/2019 22:39:44 -0.02,-137.19 0.13,-136.43 86.95 80
4 12/25/2019 11:03:40 0.03,-137.19 0.94,-141.59 499.83 80
5 12/26/2019 22:27:33 -0.02,-137.17 0.77,-133.47 421.02 80
6 12/27/2019 10:51:28 0.03,-137.17 0.36,-138.62 165.86 80
7 12/29/2019 10:36:37 0.02,-137.14 -0.29,-135.67 167.74 80
8 12/29/2019 23:00:40 -0.03,-137.14 -0.84,-140.86 423.14 80
9 12/31/2019 22:48:30 -0.03,-137.11 -0.19,-137.90 89.88 80
10 01/02/2020 22:33:38 -0.02,-137.08 0.40,-134.94 243.05 80
11 01/03/2020 10:57:33 0.03,-137.07 0.65,-140.10 343.94 80




NCC Satellite Simultaneous Nadir Overpasses (SNOs) Prediction Service
